[[{"header":{"parameterUnit":"m.s-1","parameterCategory":1,"la1":30.2991,"la2":30.254,"lo1":-89.0895,"lo2":-89.0444,"dy":0.0017,"dx":0.0017,"nx":28,"ny":28,"refTime":"2024-08-30T21:00:00:Z","depth":0,"parameterNumber":2,"parameterNumberName":"U-component_of_WINDS"},"data":[0,0,0,0,0,0,0,0,0,0,0,0,0,0,0,0,0,0,0,0,0,0,0,0,0,0,0,0,0,0,0,0,0,0,0,0,0,0,0,0,0,0,0,0,0,0,0,0,0,0,0,0,0,0,0,0,0,0,-4.286,-4.2861,0,-4.2924,-4.2925,-4.2926,-4.2864,-4.2862,-4.2859,-4.2857,-4.2918,-4.2922,-4.2926,0,0,0,0,0,0,0,0,0,0,0,0,0,-4.2681,-4.2684,-4.286,-4.2861,-4.2862,-4.2924,-4.2925,-4.2926,-4.2865,-4.2862,-4.2859,-4.2856,-4.2917,-4.2921,-4.2926,0,0,0,0,0,0,0,0,0,0,0,0,0,-4.2753,-4.2685,-4.286,-4.2839,-4.2838,-4.2924,-4.2925,-4.2926,-4.2865,-4.2862,-4.2858,-4.2855,-4.2915,-4.2921,-4.2926,-4.3035,0,0,-4.2944,-4.2947,0,0,0,0,0,0,0,0,-4.2749,-4.2759,-4.2841,-4.2841,-4.2839,-4.2883,-4.2884,-4.2963,-4.2866,-4.2855,-4.2857,-4.2853,-4.2909,-4.2915,-4.2935,-4.3038,-4.3041,-4.2945,-4.2948,-4.2951,-4.2952,0,0,0,0,0,0,0,-4.2744,-4.2756,-4.2885,-4.2843,-4.2841,-4.2825,-4.2831,-4.2898,-4.2901,-4.2855,-4.2851,-4.286,-4.2908,-4.2929,-4.2936,-4.3042,-4.2945,-4.295,-4.2953,-4.2956,-4.3235,-4.3239,0,0,0,0,0,0,-4.2742,-4.2753,-4.2883,-4.2887,-4.2784,-4.2831,-4.2838,-4.2872,-4.29,-4.2901,-4.2863,-4.2857,-4.2921,-4.2929,-4.2938,-4.3064,-4.2951,-4.2956,-4.296,-4.3231,-4.3236,-4.324,0,0,0,0,0,0,-4.2738,-4.2754,-4.2881,-4.2819,-4.2834,-4.2838,-4.2877,-4.2876,-4.2897,-4.2906,-4.2906,-4.2885,-4.2919,-4.2929,-4.3011,-4.3066,-4.2959,-4.2964,-4.3227,-4.3233,-4.3238,-4.332,0,0,0,0,0,0,-4.2733,-4.2753,-4.2796,-4.282,-4.2837,-4.2955,-4.2881,-4.2879,-4.2908,-4.29,-4.2927,-4.2927,-4.2917,-4.3003,-4.3017,-4.3072,-4.2969,-4.3222,-4.3229,-4.3236,-4.3313,-4.3328,-4.3342,0,0,0,0,0,-4.2727,-4.2816,-4.2798,-4.2814,-4.2891,-4.2958,-4.2968,-4.2955,-4.2913,-4.2954,-4.296,-4.2926,-4.3059,-4.3012,-4.3027,-4.3084,-4.3218,-4.3227,-4.3236,-4.3306,-4.3325,-4.3341,0,0,0,0,0,0,-4.2795,-4.2818,-4.2799,-4.2899,-4.2927,-4.2948,-4.3,-4.2976,-4.3015,-4.3006,-4.2988,-4.2994,-4.308,-4.3091,-4.3039,-4.319,-4.3131,-4.3143,-4.3179,-4.3198,-4.3212,-4.3206,-4.2974,0,0,0,0,0,-4.2822,-4.2877,-4.2894,-4.298,-4.2995,-4.2996,-4.3024,-4.3012,-4.304,-4.3051,-4.3063,-4.309,-4.3137,-4.3169,-4.3213,-4.3315,-4.3318,-4.3362,-4.3377,-4.3389,-4.3398,-4.3451,-4.347,-4.3269,-4.3269,-4.3269,0,0,-4.2877,-4.2897,-4.2932,-4.2994,-4.3014,-4.3069,-4.3006,-4.3067,-4.3106,-4.306,-4.3137,-4.3148,-4.3176,-4.3269,-4.331,-4.328,-4.3455,-4.34,-4.341,-4.3413,-4.3462,-4.3481,-4.3498,-4.3275,-4.3274,-4.3273,0,0,-4.3005,-4.3027,-4.31,-4.3123,-4.3155,-4.3155,-4.3173,-4.3198,-4.3203,-4.3281,-4.3247,-4.3294,-4.3376,-4.3398,-4.3419,-4.3557,-4.3526,-4.3572,-4.3646,-4.3698,-4.3713,-4.3727,-4.3773,-4.379,-4.3583,-4.3583,-4.3583,0,-4.3069,-4.3152,-4.314,-4.3204,-4.3231,-4.3194,-4.3266,-4.3288,-4.3333,-4.3352,-4.3319,-4.3421,-4.3438,-4.3534,-4.3567,-4.3588,-4.3605,-4.3567,-4.3713,-4.3726,-4.3739,-4.3782,-4.38,-4.3588,-4.3587,-4.3587,-4.3586,0,-4.3227,-4.3286,-4.334,-4.3386,-4.342,-4.3487,-4.3484,-4.3519,-4.3505,-4.3508,-4.3587,-4.3607,-4.3653,-4.3676,-4.3662,-4.3769,-4.375,-4.3716,-4.3655,-4.3763,-4.3803,-4.382,-4.3595,-4.3593,-4.3592,-4.359,0,0,-4.3397,-4.3436,-4.3456,-4.3476,-4.351,-4.3553,-4.3619,-4.3666,-4.3696,-4.3729,-4.3781,-4.3853,-4.3821,-4.3846,-4.3835,-4.388,-4.3984,-4.384,-4.384,-4.3863,-4.41,-4.4123,-4.4143,-4.3967,-4.397,-4.3972,-4.4097,0,-4.3523,-4.3638,-4.363,-4.3737,-4.3789,-4.3756,-4.3813,-4.3839,-4.3844,-4.3887,-4.3892,-4.3942,-4.3898,-4.3913,-4.3957,-4.3963,-4.4031,-4.3954,-4.4012,-4.4014,-4.4002,-4.4164,-4.4189,-4.4305,-4.4113,-4.4115,-4.4117,0,-4.3685,-4.3725,-4.3838,-4.3863,-4.3885,-4.3936,-4.3978,-4.4022,-4.405,-4.405,-4.4079,-4.406,-4.4124,-4.4066,-4.4152,-4.41,-4.4124,-4.413,-4.4135,-4.4136,-4.4069,-4.4167,-4.4342,-4.4358,-4.4143,-4.4141,-4.4139,0,-4.3793,-4.3875,-4.3953,-4.3971,-4.4004,-4.404,-4.4055,-4.408,-4.4109,-4.4146,-4.4164,-4.4208,-4.423,-4.4264,-4.4257,-4.4215,-4.4344,-4.4286,-4.4344,-4.4344,-4.4369,-4.4367,-4.4547,-4.4391,-4.4391,-4.4391,-4.439,0,-4.3933,-4.4003,-4.4002,-4.4049,-4.4125,-4.4115,-4.4191,-4.4201,-4.4224,-4.4272,-4.4246,-4.4291,-4.4281,-4.4325,-4.432,-4.4391,-4.4402,-4.4402,-4.4399,-4.4402,-4.4402,-4.4414,-4.4405,-4.4395,-4.4394,-4.4393,-4.4393,0,-4.4065,-4.4068,-4.4149,-4.4174,-4.4182,-4.4237,-4.4257,-4.4301,-4.4305,-4.4365,-4.4378,-4.4384,-4.4434,-4.4432,-4.4489,-4.4485,-4.4572,-4.4561,-4.4562,-4.4558,-4.4615,-4.4609,-4.4807,-4.4831,-4.4663,-4.4665,-4.4666,0,-4.4152,-4.4205,-4.4236,-4.4266,-4.4284,-4.4334,-4.4363,-4.4356,-4.4387,-4.4424,-4.4463,-4.4511,-4.4549,-4.4632,-4.4639,-4.4682,-4.467,-4.4737,-4.4676,-4.4677,-4.4667,-4.4662,-4.4666,-4.4747,-4.4749,-4.4751,-4.4752,0,-4.4305,-4.4304,-4.4348,-4.4393,-4.4429,-4.4464,-4.4495,-4.4521,-4.4517,-4.4553,-4.4606,-4.4635,-4.4694,-4.4742,-4.4783,-4.4797,-4.4773,-4.4772,-4.4787,-4.4788,-4.4785,-4.4784,-4.459,-4.4766,-4.4765,-4.4764,-4.4763,-4.4763,-4.4414,-4.4459,-4.4488,-4.4537,-4.4561,-4.4591,-4.4633,-4.4643,-4.4687,-4.4734,-4.4728,-4.4785,-4.4812,-4.4865,-4.4883,-4.4927,-4.4902,-4.4925,-4.493,-4.4935,-4.494,-4.4782,-4.4935,-4.4934,-4.4934,-4.4933,-4.4933,0,-4.4563,-4.458,-4.4626,-4.4672,-4.4711,-4.4688,-4.4722,-4.4755,-4.4807,-4.4834,-4.4873,-4.4932,-4.4978,-4.4991,-4.5035,-4.5067,-4.5057,-4.5079,-4.5074,-4.5077,-4.496,-4.4941,-4.5086,-4.5086,-4.5086,-4.5086,-4.5086,-4.5086,-4.4645,-4.4718,-4.4721,-4.4805,-4.4821,-4.4878,-4.4899,-4.4926,-4.4948,-4.5016,-4.5055,-4.5063,-4.5084,-4.513,-4.5171,-4.5173,-4.5189,-4.5214,-4.5212,-4.5101,-4.5086,-4.5071,-4.5053,-4.5218,-4.5219,-4.5324,-4.5325,-4.5326]},{"header":{"parameterUnit":"m.s-1","parameterCategory":1,"la1":30.2991,"la2":30.254,"lo1":-89.0895,"lo2":-89.0444,"dy":0.0017,"dx":0.0017,"nx":28,"ny":28,"refTime":"2024-08-30T21:00:00:Z","depth":0,"parameterNumber":3,"parameterNumberName":"V-component_of_WINDS"},"data":[0,0,0,0,0,0,0,0,0,0,0,0,0,0,0,0,0,0,0,0,0,0,0,0,0,0,0,0,0,0,0,0,0,0,0,0,0,0,0,0,0,0,0,0,0,0,0,0,0,0,0,0,0,0,0,0,0,0,1.0694,1.0694,0,1.0748,1.0748,1.0749,1.0732,1.0731,1.073,1.0729,1.0783,1.0785,1.0788,0,0,0,0,0,0,0,0,0,0,0,0,0,1.0576,1.0579,1.0694,1.0694,1.0695,1.0748,1.0748,1.0749,1.0733,1.0731,1.073,1.0728,1.0782,1.0785,1.0788,0,0,0,0,0,0,0,0,0,0,0,0,0,1.0628,1.0579,1.0694,1.0693,1.0694,1.0747,1.0748,1.0749,1.0733,1.0731,1.0729,1.0728,1.0781,1.0785,1.0789,1.0846,0,0,1.08,1.0802,0,0,0,0,0,0,0,0,1.0626,1.0633,1.0693,1.0693,1.0694,1.0732,1.0727,1.0781,1.0733,1.0718,1.0729,1.0727,1.0767,1.0772,1.0786,1.0848,1.085,1.08,1.0803,1.0804,1.0805,0,0,0,0,0,0,0,1.0622,1.063,1.0715,1.0693,1.0694,1.069,1.0696,1.0737,1.0751,1.0719,1.0718,1.0725,1.0767,1.0782,1.0787,1.0851,1.08,1.0804,1.0806,1.0807,1.0964,1.0966,0,0,0,0,0,0,1.0618,1.0627,1.0713,1.0717,1.0655,1.0694,1.07,1.0721,1.0751,1.0754,1.0726,1.0724,1.0777,1.0783,1.0789,1.0858,1.0804,1.0808,1.081,1.0962,1.0964,1.0966,0,0,0,0,0,0,1.0615,1.0626,1.0711,1.0672,1.0682,1.0698,1.0722,1.0723,1.0738,1.0756,1.0759,1.0739,1.0776,1.0784,1.0832,1.0859,1.0809,1.0813,1.096,1.0963,1.0965,1.0996,0,0,0,0,0,0,1.0612,1.0625,1.0647,1.0672,1.0685,1.0753,1.0723,1.0725,1.0745,1.0742,1.0769,1.0771,1.0775,1.0826,1.0836,1.0863,1.0816,1.0957,1.0961,1.0964,1.0992,1.0999,1.1005,0,0,0,0,0,1.0608,1.0653,1.0648,1.0658,1.0712,1.0755,1.0762,1.0765,1.0747,1.0769,1.0781,1.0771,1.0855,1.0831,1.0842,1.0871,1.0955,1.096,1.0964,1.0989,1.0998,1.1005,0,0,0,0,0,0,1.0629,1.0656,1.0651,1.0705,1.0728,1.0752,1.078,1.0774,1.0802,1.0798,1.0801,1.0807,1.0857,1.0869,1.0842,1.0928,1.0903,1.0909,1.0918,1.0927,1.0933,1.0928,1.0819,0,0,0,0,0,1.064,1.0673,1.0695,1.0741,1.0752,1.0764,1.0783,1.0784,1.0807,1.0817,1.0832,1.0855,1.0887,1.0907,1.0938,1.0994,1.1,1.102,1.1026,1.1032,1.1037,1.1068,1.1077,1.098,1.098,1.098,0,0,1.0663,1.0682,1.0702,1.0745,1.0763,1.0797,1.0772,1.0809,1.0834,1.0822,1.0869,1.0881,1.0907,1.096,1.0984,1.0971,1.1065,1.1037,1.1041,1.1044,1.1074,1.1083,1.1091,1.0983,1.0983,1.0982,0,0,1.0722,1.074,1.078,1.0799,1.0826,1.0834,1.0844,1.0869,1.0877,1.0924,1.0916,1.0946,1.1001,1.1019,1.1036,1.1104,1.1096,1.1114,1.1147,1.1178,1.1185,1.1192,1.1216,1.1225,1.112,1.112,1.112,0,1.0747,1.0798,1.0802,1.0839,1.0858,1.085,1.0891,1.0909,1.0945,1.0958,1.0944,1.1013,1.103,1.1087,1.1104,1.1118,1.1129,1.111,1.1184,1.1191,1.1197,1.122,1.1229,1.1122,1.1121,1.1121,1.1121,0,1.0827,1.0863,1.0892,1.0927,1.095,1.0989,1.0999,1.1021,1.1021,1.103,1.1078,1.1099,1.1133,1.1147,1.1146,1.1205,1.1196,1.1183,1.1157,1.1209,1.123,1.1239,1.1124,1.1124,1.1123,1.1123,0,0,1.0899,1.0937,1.0948,1.0964,1.0995,1.1022,1.1061,1.1095,1.1114,1.114,1.1173,1.122,1.1208,1.1228,1.1229,1.1256,1.1309,1.124,1.1241,1.1252,1.1375,1.1383,1.1394,1.1304,1.1306,1.1307,1.1372,0,1.0961,1.1029,1.1034,1.1096,1.1129,1.1123,1.1157,1.1179,1.1189,1.1219,1.123,1.1264,1.1246,1.1258,1.1284,1.1297,1.1333,1.1292,1.1334,1.1336,1.1327,1.1405,1.1414,1.1475,1.1381,1.1382,1.1383,0,1.1041,1.1069,1.1135,1.1161,1.1175,1.1205,1.1238,1.1266,1.1292,1.1297,1.1319,1.1318,1.1358,1.1332,1.1387,1.1359,1.1377,1.1386,1.1389,1.1392,1.1362,1.141,1.1494,1.1503,1.1397,1.1396,1.1395,0,1.1087,1.1141,1.1188,1.1202,1.1234,1.1255,1.127,1.1294,1.1314,1.1343,1.1356,1.1389,1.1406,1.1432,1.1439,1.1419,1.1495,1.1469,1.15,1.15,1.1515,1.1514,1.1603,1.1528,1.1528,1.1528,1.1528,0,1.1154,1.1194,1.1209,1.1237,1.1282,1.1288,1.1332,1.1345,1.1367,1.1398,1.1395,1.1424,1.1432,1.1463,1.1469,1.1514,1.1522,1.1528,1.1529,1.1528,1.1527,1.1539,1.1534,1.153,1.153,1.1529,1.1529,0,1.1212,1.1223,1.1273,1.13,1.1308,1.134,1.1363,1.139,1.1401,1.144,1.1449,1.1466,1.1502,1.1512,1.1555,1.1559,1.1612,1.161,1.1604,1.1604,1.1634,1.1631,1.1733,1.1747,1.1664,1.1664,1.1665,0,1.1254,1.1285,1.1315,1.1336,1.1351,1.1384,1.1405,1.1413,1.1435,1.1467,1.1491,1.1527,1.1556,1.1614,1.1629,1.1663,1.1661,1.1694,1.1665,1.1664,1.1661,1.1658,1.1662,1.1699,1.17,1.1701,1.1701,0,1.1327,1.1331,1.1362,1.1395,1.1421,1.1447,1.1472,1.1489,1.1501,1.1526,1.1563,1.1585,1.163,1.1666,1.17,1.1715,1.171,1.1711,1.172,1.1718,1.1713,1.1716,1.1618,1.1708,1.1707,1.1707,1.1706,1.1706,1.1378,1.1405,1.1431,1.1465,1.1485,1.1509,1.1537,1.1551,1.1582,1.1619,1.1622,1.1662,1.1688,1.1733,1.175,1.1782,1.1772,1.1785,1.1788,1.1791,1.1793,1.1709,1.1788,1.1788,1.1788,1.1788,1.1787,0,1.145,1.1467,1.1498,1.1534,1.1562,1.1556,1.1584,1.1607,1.1643,1.1667,1.1696,1.1739,1.1774,1.1793,1.1828,1.185,1.1849,1.1859,1.1857,1.186,1.18,1.1789,1.1859,1.1859,1.1859,1.1859,1.1859,1.1859,1.1491,1.1537,1.1544,1.16,1.1617,1.1656,1.1673,1.1695,1.1715,1.1763,1.1792,1.1805,1.1827,1.1864,1.1896,1.1901,1.1913,1.1925,1.1928,1.1872,1.1864,1.1857,1.1847,1.1927,1.1928,1.1985,1.1986,1.1986]}]]